Location: Gollag?dem
(16.8053°N, 80.8024°E)
Time: 14:22:41
(UTC+00:00)

Resurs 01 Rocket - Pass Details

Date: 13 August 2020
Orbit: 634 x 644 km, 98.0° (Epoch: 25 September)

Event Time Altitude Azimuth Distance (km) Brightness Sun altitude
Exits shadow 14:55:03 12° 24° (NNE) 1,907 4.1 -26.0°
Drops below altitude 10° 14:55:24 10° 21° (NNE) 2,022 4.2 -26.1°
Sets 14:57:56 0° 8° (N) 2,934 5.3 -26.6°
